EW6288 Weather Reports


Display with metric or nautical units.
time (UTC)temp
F
wind
direction
speed
MPH
gust
MPH
rain 1hr
in
rain 24hr
in
rain mn
in
humidity
%
barometer
mb
20260510105803 75 0 1.0 3.0 0.00 0.13 0.00 90 1011.0
20260510105534 75 0 0.0 3.0 0.00 0.13 0.00 90 1010.9
20260510105028 75 0 1.0 4.0 0.00 0.13 0.00 90 1010.9
20260510104527 75 0 0.0 4.0 0.00 0.13 0.00 90 1010.8
20260510103755 75 0 1.0 3.0 0.00 0.13 0.00 90 1010.8
20260510103527 75 0 1.0 3.0 0.00 0.13 0.00 90 1010.7
20260510102750 75 0 1.0 5.0 0.00 0.13 0.00 90 1010.6
20260510102744 75 0 1.0 5.0 0.00 0.13 0.00 90 1010.6
20260510101738 75 157 0.0 4.0 0.00 0.13 0.00 90 1010.7
20260510101239 75 0 1.0 4.0 0.00 0.13 0.00 90 1010.6
20260510100738 75 157 1.0 4.0 0.00 0.13 0.00 90 1010.6
20260510100238 75 104 1.0 4.0 0.00 0.13 0.00 90 1010.5
20260510095732 75 0 1.0 4.0 0.00 0.13 0.00 90 1010.4
20260510095504 75 0 1.0 7.0 0.00 0.13 0.00 90 1010.4
20260510094731 75 0 2.0 7.0 0.00 0.13 0.00 90 1010.4
20260510094500 75 149 2.0 7.0 0.00 0.13 0.00 90 1010.4
20260510093730 75 106 2.0 7.0 0.00 0.13 0.00 90 1010.4
20260510093222 75 188 2.0 8.0 0.00 0.13 0.00 90 1010.4
20260510092722 75 159 2.0 8.0 0.00 0.13 0.00 90 1010.4
20260510092222 75 133 2.0 7.0 0.00 0.13 0.00 90 1010.4
20260510091721 75 149 1.0 7.0 0.00 0.13 0.00 90 1010.5
20260510091221 75 139 1.0 4.0 0.00 0.13 0.00 90 1010.5
20260510090712 75 148 2.0 8.0 0.00 0.13 0.00 90 1010.6
20260510090442 75 150 1.0 8.0 0.00 0.13 0.00 90 1010.7
20260510085942 75 150 1.0 6.0 0.00 0.13 0.00 90 1010.6
20260510085210 75 150 1.0 6.0 0.00 0.13 0.00 89 1010.7
20260510084941 74 142 0.0 2.0 0.00 0.13 0.00 89 1010.7
20260510084439 75 142 0.0 2.0 0.00 0.13 0.00 89 1010.8
20260510083707 75 142 0.0 4.0 0.00 0.13 0.00 89 1010.8
20260510083209 75 142 0.0 4.0 0.00 0.13 0.00 89 1010.7
20260510082705 75 142 0.0 4.0 0.00 0.13 0.00 89 1010.7
20260510082205 75 139 0.0 5.0 0.00 0.13 0.00 89 1010.7
20260510081705 75 152 0.0 5.0 0.00 0.13 0.00 89 1010.7
20260510081205 75 152 0.0 5.0 0.00 0.13 0.00 89 1010.7
20260510080701 75 153 0.0 5.0 0.00 0.13 0.00 89 1010.7
20260510080200 75 153 0.0 1.0 0.00 0.13 0.00 89 1010.5
20260510075702 75 153 0.0 1.0 0.00 0.13 0.00 89 1010.6
20260510075200 75 153 0.0 5.0 0.00 0.13 0.00 89 1010.4
20260510074700 75 153 0.0 5.0 0.00 0.13 0.00 89 1010.4
20260510074201 75 166 1.0 5.0 0.00 0.13 0.00 89 1010.5
20260510073700 75 166 1.0 7.0 0.00 0.13 0.00 89 1010.4
20260510073203 75 159 1.0 7.0 0.00 0.13 0.00 89 1010.4
20260510072701 75 159 1.0 7.0 0.00 0.13 0.00 89 1010.5
20260510072204 76 110 1.0 7.0 0.00 0.13 0.00 89 1010.5
20260510071702 76 153 1.0 7.0 0.00 0.13 0.00 89 1010.6
20260510071200 76 153 0.0 7.0 0.00 0.13 0.00 89 1010.6
20260510070701 76 153 1.0 7.0 0.00 0.13 0.00 89 1010.7
20260510070431 76 150 1.0 7.0 0.00 0.13 0.00 89 1010.7
20260510065929 76 150 0.0 3.0 0.00 0.13 0.00 89 1010.7
20260510065158 76 153 1.0 5.0 0.00 0.13 0.00 89 1010.7
20260510064659 76 153 1.0 5.0 0.00 0.13 0.00 89 1010.6
20260510064159 76 144 1.0 2.0 0.00 0.13 0.00 89 1010.6
20260510063700 76 150 1.0 7.0 0.00 0.13 0.00 89 1010.6
20260510063157 76 150 1.0 7.0 0.00 0.13 0.00 89 1010.7
20260510062657 76 142 1.0 7.0 0.00 0.13 0.00 89 1010.7
20260510062153 76 101 1.0 7.0 0.00 0.13 0.00 89 1010.7
20260510061651 76 120 1.0 5.0 0.00 0.13 0.00 89 1010.7
20260510061150 76 147 1.0 5.0 0.00 0.13 0.00 89 1010.7
20260510060650 76 163 0.0 4.0 0.00 0.13 0.00 89 1010.8
20260510060420 76 153 0.0 7.0 0.00 0.13 0.00 89 1010.8
20260510055920 76 153 0.0 7.0 0.00 0.13 0.00 89 1010.9
20260510055151 76 153 1.0 7.0 0.00 0.13 0.00 89 1010.9
20260510054647 76 0 2.0 7.0 0.00 0.13 0.00 89 1010.9
20260510054420 76 170 2.0 6.0 0.00 0.13 0.00 89 1010.9
20260510053647 76 0 2.0 8.0 0.00 0.13 0.00 89 1010.9
20260510053141 76 0 2.0 8.0 0.00 0.13 0.00 89 1010.9
20260510052641 76 0 1.0 6.0 0.00 0.13 0.00 89 1011.0
20260510052411 76 0 1.0 9.0 0.00 0.13 0.00 89 1011.1
20260510051641 76 0 1.0 9.0 0.00 0.13 0.00 89 1011.1
20260510051139 76 0 2.0 5.0 0.00 0.13 0.00 89 1011.1
20260510050639 76 177 2.0 5.0 0.00 0.13 0.00 89 1011.1
20260510050138 76 0 2.0 8.0 0.00 0.13 0.00 89 1011.1
20260510045639 76 0 2.0 8.0 0.00 0.13 0.13 89 1011.0
20260510045140 76 0 3.0 8.0 0.00 0.13 0.13 89 1011.1
20260510044638 76 0 2.0 8.0 0.00 0.13 0.13 89 1011.2
20260510044138 76 0 2.0 6.0 0.00 0.13 0.13 89 1011.3
20260510043641 76 0 2.0 7.0 0.00 0.13 0.13 89 1011.3
20260510043131 76 148 1.0 7.0 0.00 0.13 0.13 89 1011.4
20260510042905 76 152 1.0 5.0 0.00 0.13 0.13 89 1011.5
20260510042132 76 0 0.0 5.0 0.00 0.13 0.13 89 1011.6
20260510041632 76 161 0.0 5.0 0.00 0.13 0.13 89 1011.4
20260510041132 76 161 1.0 5.0 0.00 0.13 0.13 89 1011.2
20260510040632 76 0 2.0 5.0 0.00 0.13 0.13 89 1011.1
20260510040132 76 0 2.0 5.0 0.00 0.13 0.13 89 1011.0
20260510035635 76 0 1.0 6.0 0.00 0.13 0.13 89 1011.1
20260510035134 76 0 1.0 6.0 0.00 0.13 0.13 89 1011.2
20260510034630 76 0 1.0 6.0 0.00 0.13 0.13 89 1011.2
20260510034130 76 165 1.0 6.0 0.00 0.13 0.13 89 1011.2
20260510033630 75 170 1.0 8.0 0.00 0.13 0.13 88 1011.4
20260510033131 75 74 1.0 8.0 0.00 0.13 0.13 88 1011.4
20260510032631 75 60 2.0 8.0 0.00 0.13 0.13 88 1011.3
20260510032130 75 152 2.0 8.0 0.00 0.13 0.13 88 1011.4
20260510031629 74 143 1.0 6.0 0.00 0.13 0.13 88 1011.4
20260510031401 74 103 1.0 5.0 0.00 0.13 0.13 87 1011.4
20260510030629 74 123 1.0 3.0 0.00 0.13 0.13 87 1011.4
20260510030125 74 137 0.0 3.0 0.00 0.13 0.13 87 1011.2
20260510025627 74 139 0.0 2.0 0.00 0.13 0.13 87 1011.1
20260510025127 74 139 0.0 1.0 0.00 0.13 0.13 87 1011.0
20260510024630 74 139 1.0 4.0 0.00 0.13 0.13 86 1010.8
20260510024125 74 139 1.0 4.0 0.00 0.13 0.13 86 1010.7
20260510023624 74 137 0.0 3.0 0.00 0.13 0.13 86 1010.4
20260510023124 74 135 1.0 3.0 0.00 0.13 0.13 86 1010.4
20260510022625 75 173 0.0 2.0 0.00 0.13 0.13 86 1010.3
20260510022126 75 212 0.0 1.0 0.00 0.13 0.13 86 1010.1
20260510021623 75 212 0.0 1.0 0.00 0.13 0.13 85 1009.8
20260510021353 75 212 0.0 1.0 0.00 0.13 0.13 86 1009.8
20260510020624 75 212 0.0 1.0 0.00 0.13 0.13 85 1009.7
20260510020122 75 212 0.0 1.0 0.00 0.13 0.13 85 1009.5
20260510015620 75 212 0.0 1.0 0.00 0.13 0.13 85 1009.4
20260510015118 75 212 0.0 2.0 0.00 0.13 0.13 85 1009.2
20260510014616 75 212 0.0 2.0 0.00 0.13 0.13 85 1009.0
20260510014115 75 212 0.0 2.0 0.01 0.13 0.13 84 1009.0
20260510013615 75 212 0.0 2.0 0.01 0.13 0.13 84 1008.8
20260510013115 75 212 0.0 2.0 0.01 0.13 0.13 84 1008.7
20260510012843 76 212 0.0 2.0 0.01 0.13 0.13 84 1008.7
20260510012111 76 212 0.0 2.0 0.01 0.13 0.13 83 1008.7
20260510011610 76 212 0.0 2.0 0.01 0.13 0.13 83 1008.6
20260510011110 76 212 0.0 2.0 0.01 0.13 0.13 82 1008.5
20260510010610 76 212 1.0 2.0 0.01 0.13 0.13 82 1008.5
20260510010112 76 212 0.0 2.0 0.02 0.13 0.13 81 1008.3
20260510005611 77 213 0.0 1.0 0.02 0.13 0.13 79 1008.0
20260510005108 77 213 0.0 1.0 0.03 0.13 0.13 79 1007.8
20260510004609 78 213 0.0 1.0 0.06 0.13 0.13 79 1007.8
20260510004108 78 213 0.0 1.0 0.12 0.12 0.12 78 1007.9
20260510003603 79 214 0.0 1.0 0.12 0.12 0.12 78 1008.1
20260510003105 80 214 0.0 8.0 0.12 0.12 0.12 78 1008.2
20260510002834 80 214 1.0 8.0 0.12 0.12 0.12 78 1008.0
20260510002104 81 214 2.0 8.0 0.12 0.12 0.12 78 1008.4
20260510001829 82 0 2.0 8.0 0.12 0.12 0.12 78 1008.3
20260510001101 83 0 1.0 6.0 0.12 0.12 0.12 78 1008.4
20260510000600 83 0 0.0 2.0 0.12 0.12 0.12 76 1007.9
20260510000059 84 0 0.0 2.0 0.11 0.11 0.11 76 1008.0
20260509235600 85 0 1.0 2.0 0.11 0.11 0.11 76 1008.1
20260509235058 86 0 1.0 2.0 0.10 0.10 0.10 75 1007.5
20260509234558 87 150 0.0 4.0 0.07 0.07 0.07 73 1007.6
20260509234057 87 152 0.0 4.0 0.00 0.00 0.00 70 1007.7
20260509233553 87 152 1.0 4.0 0.00 0.00 0.00 68 1007.5
20260509233051 87 146 1.0 5.0 0.00 0.00 0.00 66 1007.4
20260509232554 87 153 1.0 5.0 0.00 0.00 0.00 67 1007.4
20260509232053 87 141 1.0 4.0 0.00 0.00 0.00 66 1007.4
20260509231546 87 161 1.0 4.0 0.00 0.00 0.00 66 1007.3
20260509231046 87 187 0.0 3.0 0.00 0.00 0.00 65 1007.4
20260509230543 87 190 1.0 6.0 0.00 0.00 0.00 65 1007.5
20260509230316 87 186 1.0 6.0 0.00 0.00 0.00 65 1007.4
20260509225815 87 123 0.0 3.0 0.00 0.00 0.00 67 1007.1
20260509225045 88 260 0.0 1.0 0.00 0.00 0.00 67 1007.1
20260509224814 88 260 0.0 2.0 0.00 0.00 0.00 69 1007.1
20260509224044 88 260 0.0 2.0 0.00 0.00 0.00 69 1007.1
20260509223545 88 305 0.0 2.0 0.00 0.00 0.00 66 1007.1
20260509223045 88 305 1.0 2.0 0.00 0.00 0.00 68 1007.0
20260509222544 89 305 1.0 2.0 0.00 0.00 0.00 67 1007.0
20260509222042 89 336 0.0 2.0 0.00 0.00 0.00 68 1007.0
20260509221541 89 336 0.0 2.0 0.00 0.00 0.00 66 1007.0
20260509221042 89 5 1.0 2.0 0.00 0.00 0.00 65 1007.0
20260509220540 89 265 1.0 2.0 0.00 0.00 0.00 65 1007.0
20260509220040 89 259 0.0 2.0 0.00 0.00 0.00 66 1007.0
20260509215539 89 259 1.0 4.0 0.00 0.00 0.00 66 1006.9
20260509215040 89 259 2.0 4.0 0.00 0.00 0.00 66 1007.0
20260509214540 89 330 2.0 6.0 0.00 0.00 0.00 66 1007.0
20260509214039 89 355 1.0 6.0 0.00 0.00 0.00 67 1007.0
20260509213810 89 328 2.0 4.0 0.00 0.00 0.00 66 1007.0
20260509213034 89 327 2.0 6.0 0.00 0.00 0.00 68 1007.0
20260509212806 89 35 1.0 6.0 0.00 0.00 0.00 66 1007.0
20260509212035 89 307 1.0 6.0 0.00 0.00 0.00 65 1007.0
20260509211534 89 279 1.0 6.0 0.00 0.00 0.00 66 1007.1
20260509211303 89 18 1.0 4.0 0.00 0.00 0.00 65 1007.2
20260509210802 89 41 1.0 4.0 0.00 0.00 0.00 67 1007.3
20260509210032 89 305 1.0 4.0 0.00 0.00 0.00 64 1007.3
20260509205528 90 300 1.0 4.0 0.00 0.00 0.00 65 1007.4
20260509205027 90 348 1.0 4.0 0.00 0.00 0.00 66 1007.5
20260509204800 90 17 1.0 4.0 0.00 0.00 0.00 64 1007.5
20260509204258 89 228 1.0 4.0 0.00 0.00 0.00 62 1007.6
20260509203527 89 261 0.0 3.0 0.00 0.00 0.00 65 1007.6
20260509203026 89 261 0.0 4.0 0.00 0.00 0.00 65 1007.7
20260509202528 89 261 1.0 4.0 0.00 0.00 0.00 64 1007.7
20260509202022 89 263 1.0 4.0 0.00 0.00 0.00 64 1007.8
20260509201522 89 244 2.0 4.0 0.00 0.00 0.00 64 1007.8
20260509201018 89 323 1.0 4.0 0.00 0.00 0.00 64 1007.8
20260509200517 88 327 1.0 3.0 0.00 0.00 0.00 69 1007.9
20260509200021 88 217 0.0 4.0 0.00 0.00 0.00 65 1008.0
20260509200017 89 221 1.0 4.0 0.00 0.00 0.00 64 1007.9
20260509195016 88 217 1.0 4.0 0.00 0.00 0.00 65 1008.0
20260509194517 88 210 1.0 4.0 0.00 0.00 0.00 66 1008.1
20260509194018 88 254 1.0 4.0 0.00 0.00 0.00 67 1008.2
20260509193516 88 290 1.0 4.0 0.00 0.00 0.00 67 1008.2
20260509193014 87 17 1.0 4.0 0.00 0.00 0.00 69 1008.2
20260509192517 87 17 1.0 4.0 0.00 0.00 0.00 67 1008.1
20260509192017 87 320 1.0 4.0 0.00 0.00 0.00 71 1008.3
20260509191513 87 72 1.0 4.0 0.00 0.00 0.00 71 1008.3
20260509191245 86 40 1.0 4.0 0.00 0.00 0.00 73 1008.4
20260509190745 86 16 1.0 3.0 0.00 0.00 0.00 72 1008.4
20260509190014 87 267 1.0 3.0 0.00 0.00 0.00 73 1008.4
20260509185509 86 11 1.0 3.0 0.00 0.00 0.00 74 1008.4
20260509185010 86 355 1.0 4.0 0.00 0.00 0.00 71 1008.5
20260509184739 86 305 1.0 4.0 0.00 0.00 0.00 75 1008.5
20260509184237 87 298 1.0 4.0 0.00 0.00 0.00 74 1008.6
20260509183507 85 128 1.0 2.0 0.00 0.00 0.00 76 1008.6
20260509183008 85 128 1.0 2.0 0.00 0.00 0.00 74 1008.8
20260509182739 85 128 1.0 5.0 0.00 0.00 0.00 75 1008.9
20260509182623 85 187 1.0 5.0 0.00 0.00 0.00 73 1008.9
20260509182128 85 188 2.0 5.0 0.00 0.00 0.00 74 1009.1
20260509181010 85 159 1.0 5.0 0.00 0.00 0.00 74 1009.2
20260509180500 85 157 1.0 9.0 0.00 0.00 0.00 73 1009.4
20260509180000 85 123 2.0 9.0 0.00 0.00 0.00 76 1009.6
20260509175500 85 230 2.0 9.0 0.00 0.00 0.00 76 1009.8
20260509175000 85 157 2.0 10.0 0.00 0.00 0.00 74 1009.7
20260509174500 85 94 2.0 10.0 0.00 0.00 0.00 74 1009.6
20260509174000 85 144 3.0 10.0 0.00 0.00 0.00 76 1009.6
20260509173458 84 183 3.0 10.0 0.00 0.00 0.00 77 1009.7
20260509172959 84 165 2.0 7.0 0.00 0.00 0.00 77 1009.8
20260509172728 83 129 1.0 5.0 0.00 0.00 0.00 80 1010.0
20260509171953 83 286 1.0 4.0 0.00 0.00 0.00 82 1010.1
20260509171454 82 166 1.0 4.0 0.00 0.00 0.00 82 1010.2
20260509170951 82 248 1.0 4.0 0.00 0.00 0.00 83 1010.3
20260509170722 81 261 1.0 4.0 0.00 0.00 0.00 85 1010.2
20260509165951 80 244 1.0 4.0 0.00 0.00 0.00 88 1010.2
20260509165449 79 208 1.0 4.0 0.00 0.00 0.00 90 1010.3
20260509164954 78 191 0.0 2.0 0.00 0.00 0.00 91 1010.3
20260509164949 78 192 0.0 2.0 0.00 0.00 0.00 91 1010.4
20260509164219 78 191 1.0 2.0 0.00 0.00 0.00 91 1010.4
20260509163445 78 191 0.0 2.0 0.00 0.00 0.00 91 1010.3
20260509162942 78 191 0.0 1.0 0.00 0.00 0.00 91 1010.3
20260509162446 78 191 0.0 1.0 0.00 0.00 0.00 91 1010.2
20260509161944 78 191 0.0 1.0 0.00 0.00 0.00 91 1010.3
20260509161441 78 191 0.0 1.0 0.00 0.00 0.00 91 1010.2
20260509160944 78 191 0.0 1.0 0.00 0.00 0.00 91 1010.3
20260509160437 78 191 0.0 1.0 0.00 0.00 0.00 91 1010.2
20260509155939 78 191 0.0 2.0 0.00 0.00 0.00 91 1010.2
20260509155436 78 191 0.0 2.0 0.00 0.00 0.00 91 1010.3
20260509154934 78 191 0.0 1.0 0.00 0.00 0.00 91 1010.3
20260509154707 77 191 0.0 1.0 0.00 0.00 0.00 91 1010.1
20260509153935 77 191 0.0 1.0 0.00 0.00 0.00 91 1010.1
20260509153431 77 191 0.0 3.0 0.00 0.00 0.00 91 1010.0
20260509152930 77 191 0.0 3.0 0.00 0.00 0.00 91 1010.0
20260509152431 77 191 0.0 3.0 0.00 0.00 0.00 91 1010.1
20260509152159 77 191 0.0 3.0 0.00 0.00 0.00 91 1010.1
20260509151424 77 191 0.0 0.0 0.00 0.00 0.00 91 1010.1
20260509150922 77 191 0.0 0.0 0.00 0.00 0.00 91 1010.1
20260509150422 77 191 0.0 0.0 0.00 0.00 0.00 91 1010.2
20260509150151 77 191 0.0 0.0 0.00 0.00 0.00 91 1010.0
20260509150036 77 191 0.0 1.0 0.00 0.00 0.00 91 1010.0
20260509144912 77 191 0.0 1.0 0.00 0.00 0.00 91 1010.0
20260509144414 77 191 0.0 1.0 0.00 0.00 0.00 91 1010.0
20260509143914 77 191 0.0 1.0 0.00 0.00 0.00 91 1009.8
20260509143412 77 191 0.0 1.0 0.00 0.00 0.00 91 1009.7
20260509142912 77 194 0.0 1.0 0.00 0.00 0.00 91 1009.7
20260509142645 77 0 0.0 1.0 0.00 0.00 0.00 91 1009.5
20260509141909 77 194 0.0 0.0 0.00 0.00 0.00 91 1009.6
20260509141408 77 194 0.0 2.0 0.00 0.00 0.00 91 1009.4
20260509140904 77 0 0.0 2.0 0.00 0.00 0.00 91 1009.0
20260509140632 77 0 0.0 1.0 0.00 0.00 0.00 91 1009.0
20260509140128 77 0 0.0 1.0 0.00 0.00 0.00 91 1009.2
20260509135400 77 0 0.0 2.0 0.00 0.00 0.00 91 1009.4
20260509134900 77 0 0.0 2.0 0.00 0.00 0.00 91 1009.4
20260509134357 77 0 0.0 2.0 0.00 0.00 0.00 91 1009.7
20260509133857 77 0 0.0 2.0 0.00 0.00 0.00 91 1009.7
20260509133357 77 0 0.0 4.0 0.00 0.00 0.00 91 1009.9
20260509132857 77 0 0.0 4.0 0.00 0.00 0.00 91 1010.2
20260509132355 76 0 0.0 4.0 0.00 0.00 0.00 91 1010.4
20260509131854 76 0 0.0 4.0 0.00 0.00 0.00 91 1010.6
20260509131352 76 116 0.0 2.0 0.00 0.00 0.00 91 1010.6
20260509130854 76 116 0.0 1.0 0.00 0.00 0.00 91 1010.4
20260509130353 76 116 0.0 0.0 0.00 0.00 0.00 91 1010.2
20260509125852 76 116 0.0 1.0 0.00 0.00 0.00 91 1010.3
20260509125353 76 116 0.0 1.0 0.00 0.00 0.00 91 1010.2
20260509124851 76 116 0.0 1.0 0.00 0.00 0.00 91 1010.2
20260509124350 76 116 0.0 1.0 0.00 0.00 0.00 91 1010.1
20260509123846 76 116 0.0 1.0 0.00 0.00 0.00 91 1010.1
20260509123345 76 116 0.0 1.0 0.00 0.00 0.00 91 1010.1
20260509122845 76 116 0.0 0.0 0.00 0.00 0.00 91 1010.1
20260509122342 76 116 0.0 1.0 0.00 0.00 0.00 91 1010.0
20260509121844 76 116 0.0 1.0 0.00 0.00 0.00 91 1010.1
20260509121344 76 116 0.0 1.0 0.00 0.00 0.00 91 1010.2
20260509120840 76 117 0.0 1.0 0.00 0.00 0.00 91 1010.0
20260509120343 76 117 0.0 1.0 0.00 0.00 0.00 91 1009.9
20260509115840 76 117 0.0 0.0 0.00 0.00 0.00 91 1009.8
20260509115341 76 117 0.0 0.0 0.00 0.00 0.00 91 1009.6
20260509114838 76 117 0.0 1.0 0.00 0.00 0.00 91 1009.7
20260509114335 76 117 0.0 1.0 0.00 0.00 0.00 91 1009.8
20260509113834 75 117 0.0 1.0 0.00 0.00 0.00 91 1009.8
20260509113335 75 117 0.0 1.0 0.00 0.00 0.00 91 1009.9
20260509112834 75 117 0.0 1.0 0.00 0.00 0.00 91 1010.1
20260509112334 75 154 0.0 0.0 0.00 0.00 0.00 91 1010.1
20260509111831 75 154 0.0 0.0 0.00 0.00 0.00 91 1010.0
20260509111558 75 154 0.0 0.0 0.00 0.00 0.00 91 1009.7
20260509111059 75 154 0.0 0.0 0.00 0.00 0.00 91 1009.7
20260509110327 75 154 0.0 1.0 0.00 0.00 0.00 91 1009.7